Wind_Speed
8 8 9 11 12 14 16 17 19 21 22 24 25 26 28 29 31 32 33 34 35 36 36 36 36 37 36 36 36 36 36 37 38 39 40 39 37 34 31 28 26 26 26
9 11 12 14 15 17 18 20 22 23 24 25 27 28 29 31 32 33 35 36 37 38 39 39 40 40 40 40 39 39 39 37 37 39 41 42 41 40 37 34 32 30 29
12 13 14 16 17 19 20 22 23 25 27 28 30 31 33 34 35 37 38 39 40 41 42 43 44 44 44 44 44 43 42 41 41 41 42 42 42 43 42 41 38 36 34
14 15 16 17 19 20 22 24 26 28 30 31 33 35 37 39 40 42 43 44 46 47 48 49 49 49 49 49 49 48 47 46 45 46 46 44 44 44 44 44 44 42 39
15 16 18 19 21 23 25 27 29 31 33 35 37 39 41 43 45 46 48 49 50 52 53 54 55 55 56 56 56 55 54 52 51 51 50 49 48 48 47 46 47 46 45
17 19 20 22 24 26 28 31 33 35 37 38 40 42 44 46 48 49 51 53 55 56 57 59 60 61 61 62 62 62 61 60 58 57 56 55 54 53 51 50 49 48 48
19 21 22 24 27 29 32 34 35 37 39 40 42 44 46 48 50 52 55 57 60 61 63 65 66 67 68 68 68 68 67 67 66 65 64 62 60 59 57 55 53 52 51
21 23 25 28 30 33 35 37 38 39 41 42 45 47 50 52 55 58 60 63 65 67 69 70 72 73 74 74 75 75 74 73 72 72 71 69 67 66 63 61 58 57 55
24 27 29 31 34 36 37 39 40 42 44 46 49 52 55 58 61 64 66 69 71 73 74 76 77 78 79 80 81 82 81 80 79 78 77 76 74 73 71 67 65 62 60
28 30 33 35 36 38 39 40 42 44 47 50 53 56 60 63 66 69 71 74 76 79 82 84 87 89 90 91 91 91 90 89 88 86 84 82 81 80 78 75 72 69 66
31 33 35 37 38 39 41 43 45 48 51 54 57 61 64 67 69 71 74 77 81 84 89 93 97 100 103 104 105 105 103 102 99 96 93 90 88 86 84 82 79 76 73
33 35 36 37 39 41 43 45 48 51 55 57 61 63 66 69 71 74 77 81 86 91 96 101 106 110 113 115 116 116 116 114 112 108 105 101 98 94 92 89 86 83 80
35 36 37 38 40 43 45 48 51 54 57 60 63 66 68 71 73 77 81 86 92 98 104 109 113 115 117 117 118 117 117 117 116 115 113 110 107 103 100 96 93 90 86
35 37 38 40 42 45 48 51 54 57 60 62 65 67 69 72 76 81 86 93 99 105 110 112 112 109 106 103 102 101 102 104 107 109 112 112 112 110 107 104 100 97 93
36 38 40 42 45 47 50 53 56 59 62 65 67 69 71 75 80 85 92 99 105 108 108 104 98 93 88 85 84 84 85 87 90 94 99 103 107 110 111 109 106 103 100
38 40 42 44 47 49 52 55 57 60 63 66 68 70 74 79 85 91 98 103 104 102 96 89 85 82 81 81 81 81 81 82 83 85 88 92 96 101 106 109 109 108 105
40 42 44 46 48 51 53 56 59 61 64 67 69 72 77 83 90 96 101 102 98 91 85 82 81 81 81 81 81 80 80 80 81 82 84 86 88 92 97 103 107 109 109
41 44 46 47 50 52 54 56 59 62 65 68 71 75 81 87 94 99 100 96 89 83 80 80 80 80 79 79 79 78 78 78 79 80 81 83 85 88 91 96 101 106 109
43 45 46 48 50 53 55 57 60 63 66 69 72 77 84 91 96 98 95 88 82 79 78 79 78 77 77 75 72 69 68 69 71 74 77 80 82 84 88 92 97 103 108
43 45 47 49 51 53 55 58 61 64 67 70 75 80 87 93 96 95 89 82 79 77 77 76 75 75 74 71 65 61 59 60 62 65 70 75 79 82 85 90 95 101 107
44 46 48 49 51 53 55 58 62 65 68 72 77 83 89 94 94 91 83 78 76 76 75 75 76 73 69 66 61 56 52 52 54 57 62 68 74 79 83 87 93 98 104
46 48 50 51 52 54 56 59 63 66 69 73 79 84 91 93 92 86 79 76 75 74 73 75 75 71 65 62 59 55 51 45 44 47 53 60 69 76 81 85 90 95 100
49 52 54 54 55 56 58 61 64 67 70 75 80 86 91 92 88 82 76 75 74 74 74 75 74 68 62 56 54 53 51 46 38 34 41 51 62 72 79 82 85 90 95
51 54 57 58 59 59 60 63 66 69 72 76 81 87 90 89 84 79 75 74 73 73 74 75 71 65 60 53 48 46 45 45 40 28 27 37 52 66 76 80 82 85 90
53 56 59 62 63 63 63 65 67 70 73 77 82 87 89 86 81 76 73 73 72 73 74 73 68 62 57 51 46 42 38 36 36 30 20 24 39 56 70 77 78 79 83
55 58 61 64 66 67 67 67 69 71 74 77 82 87 88 84 78 74 72 72 72 72 73 71 66 61 54 48 43 39 36 33 30 28 21 16 26 44 60 71 75 76 78
Wind_Direction
4 349 336 326 320 315 312 309 307 306 304 302 300 299 298 296 295 294 294 293 292 290 288 286 284 282 281 279 278 276 273 270 268 267 265 264 263 260 257 253 249 247 244
338 327 320 316 315 314 313 311 309 308 306 304 303 301 300 298 297 295 294 292 291 289 288 287 285 282 280 278 276 275 274 272 269 267 264 263 262 260 258 255 251 248 245
322 317 316 317 317 316 314 313 311 310 309 307 306 304 302 301 299 297 295 293 291 289 287 286 285 283 280 278 275 273 272 271 269 267 265 263 261 259 257 255 251 248 246
320 320 320 320 319 318 317 315 313 311 309 307 306 304 303 301 300 298 295 293 291 289 287 285 284 282 280 278 275 272 270 268 267 266 265 263 261 259 257 255 252 249 246
324 324 323 323 322 320 318 315 313 310 309 307 305 304 302 301 299 297 295 293 291 289 287 285 283 281 279 277 275 272 270 267 265 264 263 262 260 259 256 255 253 250 247
326 326 325 324 322 320 317 314 312 311 309 308 306 304 303 301 300 298 296 294 292 290 288 285 283 281 278 276 274 272 270 267 264 262 261 260 258 257 256 254 252 251 249
325 324 324 322 320 318 315 314 313 312 310 309 307 305 304 302 301 299 297 296 294 292 289 287 284 282 279 276 274 272 270 267 265 263 260 258 256 255 254 253 252 250 249
322 322 321 320 319 317 316 315 315 314 312 310 309 307 306 305 303 302 300 298 296 293 291 288 286 283 280 277 275 272 269 267 265 262 260 258 255 253 252 251 250 249 247
320 320 320 319 318 317 317 316 316 314 313 312 311 310 308 307 305 304 301 299 297 294 292 289 286 283 281 278 275 272 269 266 263 261 259 257 255 253 251 249 248 247 246
320 319 319 319 318 318 318 318 317 316 315 314 312 311 309 308 306 304 302 300 298 296 294 291 289 286 284 280 277 273 269 265 263 260 257 255 254 252 250 248 246 245 244
319 319 320 319 319 319 319 319 318 317 316 314 313 311 309 307 306 304 302 300 299 297 295 293 291 288 286 283 280 276 272 268 264 261 258 255 253 251 250 248 245 243 242
319 319 320 319 320 320 320 319 318 317 315 313 312 310 308 307 306 304 303 301 300 298 296 293 291 288 285 283 280 278 275 272 267 263 259 256 253 250 248 247 244 242 240
320 320 320 320 320 320 320 319 318 316 314 313 311 310 309 308 307 306 304 302 300 298 296 293 290 288 286 284 281 279 276 273 270 266 262 258 255 251 248 245 243 241 239
321 322 321 321 321 321 320 319 317 316 314 313 311 310 310 309 308 307 306 304 302 299 296 293 291 289 287 285 282 279 275 272 269 266 262 259 256 252 248 245 242 240 238
324 324 323 322 321 320 319 317 316 315 314 313 312 312 311 310 310 309 308 306 304 301 299 297 295 293 290 286 282 278 274 270 266 263 259 256 254 251 248 245 242 239 237
326 325 323 322 320 319 318 317 316 315 315 314 314 314 313 313 313 312 310 308 306 305 303 302 300 297 294 290 286 281 276 271 266 261 256 252 249 247 245 243 240 238 235
327 325 323 321 320 318 317 317 316 316 317 316 316 316 316 316 316 314 313 311 310 309 308 306 304 301 298 294 290 284 279 273 267 262 256 251 246 242 240 238 237 235 233
328 326 323 321 319 318 318 318 318 319 319 319 319 319 319 319 318 317 316 315 314 313 311 309 308 305 302 298 293 288 281 274 267 261 255 250 245 240 236 233 232 231 229
330 327 325 322 320 319 319 320 321 322 322 322 322 322 322 322 321 320 320 319 318 316 315 313 312 309 307 303 298 292 286 278 270 261 253 248 243 238 233 230 227 226 225
334 331 328 325 322 321 322 323 324 324 324 325 325 325 325 324 324 324 323 322 321 320 319 318 316 314 312 308 304 299 292 284 274 263 253 246 240 236 231 227 225 223 222
341 337 333 329 326 325 325 326 327 327 327 327 327 327 327 327 328 327 326 325 324 324 323 322 321 319 316 313 310 306 301 294 282 267 255 244 237 233 229 226 223 221 220
346 343 340 335 332 330 329 330 330 330 329 329 329 329 330 331 331 330 329 328 328 327 326 326 325 323 321 319 316 314 311 304 292 277 257 243 234 230 227 225 222 220 218
348 347 345 342 338 335 334 333 333 333 332 331 331 331 333 334 333 332 332 331 331 330 330 330 329 327 324 322 320 319 319 318 310 290 264 244 232 226 224 223 221 219 217
349 348 348 346 343 340 337 336 336 335 334 334 334 334 335 336 336 335 334 334 334 334 334 333 332 330 327 324 322 320 322 325 326 315 279 249 232 224 221 221 220 218 216
349 349 349 349 347 344 341 339 338 338 337 336 336 337 338 339 338 337 337 337 337 337 337 336 335 333 329 325 322 321 321 325 329 331 310 260 235 224 220 218 218 217 216
350 349 349 349 349 346 344 342 341 340 339 338 338 339 341 341 340 339 340 340 340 340 340 339 338 336 331 326 323 320 320 322 327 330 329 290 244 227 219 216 216 216 216
Height
5878 5877 5877 5876 5876 5875 5874 5873 5872 5870 5869 5868 5867 5865 5864 5862 5861 5859 5858 5856 5855 5854 5853 5853 5852 5852 5852 5851 5851 5851 5852 5854 5855 5856 5857 5859 5861 5864 5866 5868 5870 5871 5872
5877 5877 5876 5875 5874 5873 5872 5870 5869 5868 5866 5865 5863 5862 5860 5858 5857 5855 5853 5852 5850 5848 5847 5846 5845 5845 5845 5845 5845 5845 5845 5846 5848 5848 5848 5851 5853 5856 5859 5862 5864 5866 5867
5876 5876 5874 5873 5872 5871 5869 5868 5866 5864 5863 5861 5859 5857 5855 5853 5851 5850 5848 5846 5844 5842 5841 5839 5838 5837 5836 5836 5836 5837 5837 5838 5839 5839 5840 5843 5844 5846 5850 5853 5856 5859 5861
5875 5874 5873 5871 5870 5868 5867 5865 5863 5861 5858 5856 5854 5851 5849 5847 5844 5842 5840 5838 5836 5834 5832 5831 5829 5828 5827 5826 5826 5827 5828 5829 5830 5830 5831 5833 5835 5837 5840 5843 5847 5850 5854
5873 5872 5870 5869 5867 5865 5863 5861 5859 5856 5854 5851 5848 5845 5842 5839 5837 5834 5831 5828 5826 5824 5822 5820 5818 5817 5816 5815 5814 5815 5816 5817 5819 5819 5820 5822 5824 5826 5829 5832 5836 5840 5844
5871 5869 5868 5866 5864 5862 5859 5856 5854 5850 5847 5844 5841 5838 5834 5831 5828 5824 5821 5818 5815 5812 5809 5807 5805 5803 5802 5801 5801 5800 5801 5803 5805 5806 5807 5810 5812 5814 5817 5821 5824 5829 5833
5869 5867 5865 5862 5860 5857 5854 5851 5847 5844 5840 5837 5833 5829 5825 5822 5818 5814 5810 5806 5802 5798 5795 5792 5789 5787 5786 5785 5784 5784 5785 5786 5789 5790 5792 5795 5798 5800 5804 5808 5812 5817 5821
5866 5864 5861 5858 5855 5851 5847 5844 5840 5836 5832 5828 5824 5820 5815 5811 5806 5801 5797 5792 5787 5783 5779 5775 5772 5769 5767 5765 5765 5764 5765 5767 5769 5771 5774 5778 5781 5784 5788 5793 5798 5803 5808
5862 5860 5857 5853 5849 5845 5841 5837 5832 5828 5823 5819 5814 5809 5804 5799 5793 5788 5782 5777 5771 5766 5761 5756 5751 5748 5745 5743 5741 5741 5742 5744 5747 5750 5754 5757 5761 5765 5771 5777 5782 5788 5793
5858 5855 5851 5847 5843 5838 5834 5829 5825 5820 5815 5809 5804 5798 5793 5786 5780 5773 5767 5760 5753 5746 5740 5733 5727 5722 5718 5715 5713 5713 5714 5717 5720 5725 5730 5734 5738 5743 5750 5757 5764 5771 5777
5853 5849 5845 5841 5836 5831 5827 5822 5816 5811 5806 5800 5794 5788 5781 5775 5768 5760 5752 5744 5736 5727 5718 5709 5700 5692 5686 5681 5678 5677 5679 5682 5688 5694 5700 5707 5713 5719 5727 5735 5743 5751 5759
5848 5844 5840 5834 5829 5825 5819 5814 5809 5803 5797 5791 5784 5778 5770 5763 5755 5746 5737 5727 5717 5707 5695 5684 5672 5662 5653 5647 5641 5638 5639 5642 5648 5656 5665 5673 5682 5691 5701 5710 5719 5729 5738
5843 5838 5833 5828 5823 5818 5812 5806 5801 5795 5788 5782 5774 5767 5758 5750 5741 5731 5721 5710 5698 5684 5670 5656 5642 5628 5618 5610 5604 5601 5599 5600 5606 5613 5624 5634 5645 5658 5670 5682 5693 5704 5715
5837 5832 5827 5822 5816 5810 5804 5798 5792 5786 5779 5771 5764 5755 5747 5737 5727 5715 5702 5688 5673 5656 5639 5622 5607 5594 5584 5575 5568 5564 5562 5562 5566 5572 5582 5593 5605 5619 5635 5649 5663 5676 5689
5831 5826 5821 5815 5809 5803 5797 5791 5784 5777 5769 5761 5752 5743 5733 5722 5710 5697 5681 5663 5643 5623 5603 5587 5573 5561 5551 5544 5537 5532 5529 5528 5529 5533 5542 5552 5564 5579 5596 5613 5629 5645 5660
5826 5820 5814 5808 5802 5796 5789 5783 5775 5768 5759 5750 5740 5729 5718 5705 5691 5674 5655 5635 5613 5592 5573 5557 5544 5533 5523 5515 5508 5502 5498 5496 5497 5499 5505 5515 5526 5540 5556 5574 5592 5610 5628
5820 5815 5808 5802 5795 5788 5782 5774 5766 5757 5748 5737 5726 5714 5701 5686 5669 5650 5628 5605 5584 5564 5548 5534 5520 5508 5497 5486 5478 5471 5466 5463 5464 5467 5472 5480 5491 5504 5519 5536 5554 5573 5593
5815 5809 5802 5795 5788 5781 5773 5765 5756 5746 5735 5724 5712 5698 5683 5666 5646 5625 5602 5579 5559 5542 5526 5512 5498 5484 5471 5459 5448 5440 5433 5430 5430 5433 5438 5446 5457 5471 5485 5500 5517 5536 5557
5809 5803 5796 5788 5780 5772 5764 5755 5745 5734 5723 5710 5697 5682 5665 5645 5624 5601 5578 5557 5539 5522 5506 5491 5476 5460 5446 5433 5421 5411 5403 5397 5396 5399 5405 5413 5423 5437 5452 5467 5482 5500 5520
5804 5797 5789 5781 5773 5764 5754 5745 5734 5722 5709 5696 5681 5665 5646 5626 5603 5580 5558 5538 5521 5504 5488 5472 5456 5441 5423 5407 5397 5388 5379 5371 5367 5368 5372 5381 5393 5406 5420 5435 5450 5466 5487
5799 5791 5783 5774 5764 5755 5745 5734 5722 5710 5696 5682 5666 5648 5629 5607 5584 5561 5540 5522 5504 5488 5470 5453 5437 5421 5404 5387 5376 5367 5360 5349 5341 5339 5343 5353 5365 5377 5390 5405 5420 5437 5457
5794 5785 5776 5766 5756 5746 5735 5724 5711 5698 5684 5668 5651 5633 5612 5589 5566 5544 5525 5507 5490 5473 5455 5437 5419 5402 5387 5371 5357 5347 5340 5334 5324 5316 5318 5325 5337 5349 5363 5377 5393 5413 5433
5787 5779 5769 5758 5747 5736 5725 5713 5700 5686 5671 5655 5637 5617 5596 5573 5550 5529 5511 5493 5476 5458 5441 5423 5404 5386 5373 5360 5345 5333 5322 5314 5309 5302 5298 5303 5312 5325 5340 5357 5374 5392 5411
5781 5772 5761 5750 5739 5727 5715 5702 5688 5674 5659 5642 5624 5604 5582 5559 5536 5516 5498 5481 5464 5446 5428 5409 5390 5373 5358 5348 5338 5327 5316 5305 5296 5291 5287 5288 5294 5306 5320 5336 5354 5372 5391
5775 5765 5754 5742 5730 5717 5705 5691 5677 5662 5647 5630 5612 5591 5569 5546 5525 5505 5488 5470 5453 5435 5417 5398 5379 5363 5348 5337 5328 5320 5312 5303 5294 5285 5281 5279 5283 5291 5304 5321 5338 5357 5374
5768 5757 5746 5734 5722 5708 5695 5681 5667 5652 5636 5619 5600 5580 5558 5536 5515 5496 5479 5461 5443 5425 5407 5388 5370 5354 5340 5329 5319 5312 5305 5298 5291 5284 5279 5276 5276 5281 5292 5307 5324 5340 5355